Home   Weather   Dharmapuri   Past weeks

Flag for India Past Weather in Dharmapuri, Tamil Nadu, India — Yesterday and Last 2 Weeks

86 °F

Passing clouds.

Feels Like: 84 °F
Forecast: 66 / 89 °F
Wind: 5 mph from Northeast

Location: Bangalore / Hindustan

Current Time: Oct 26, 2016 at 2:52:09 PM

Latest Report: Oct 26, 2016 at 2:00 PM

Visibility: 5 mi

Pressure: 29.89 "Hg

Humidity: 33%

Dew Point: 54 °F

Location of DharmapuriLocation

Past Weather in Dharmapuri — Graph


Dharmapuri Temperature Yesterday

Maximum temperature yesterday: 86 °F (at 1:30 PM)
Minimum temperature yesterday: 70 °F (at 5:30 AM)
Average temperature yesterday: 79 °F

High & Low Weather Summary for the Past Weeks

High86 °F (Oct 11, 2:30 PM)94% (Oct 11, 7:30 PM)30.04 "Hg (Oct 11, 7:30 PM)
Low64 °F (Oct 24, 6:00 AM)31% (Oct 16, 4:00 PM)29.80 "Hg (Oct 20, 4:00 PM)
Average78 °F54%29.94 "Hg
* Reported Oct 11 1:30 PM — Oct 26 1:30 PM, Dharmapuri, Weather by CustomWeather, © 2016

Note: Actual official high and low records may vary slightly from our data, if they occured in-between our weather recording intervals... More about our weather records


Dharmapuri Weather History for the Previous 24 Hours

Scroll right to see more
Time TempWeatherWind HumidityBarometerVisibility
1:30 PM
Wed, Oct 26
84 °FPassing clouds.5 mph35%29.92 "Hg5 mi
1:00 PM84 °FPassing clouds.5 mph37%29.92 "Hg5 mi
12:30 PM84 °FPassing clouds.7 mph37%29.95 "Hg5 mi
12:00 PM82 °FPassing clouds.6 mph42%29.95 "Hg5 mi
11:30 AM81 °FPassing clouds.5 mph48%29.98 "Hg5 mi
11:00 AM81 °FPassing clouds.6 mph42%29.98 "Hg4 mi
10:00 AM79 °FClear.7 mph48%30.01 "Hg4 mi
9:30 AM77 °FClear.5 mph54%30.01 "Hg4 mi
9:00 AM77 °FFog.5 mph54%30.01 "Hg2 mi
8:30 AM73 °FFog.2 mph61%30.01 "Hg2 mi
8:00 AM72 °FFog.No wind61%29.98 "Hg2 mi
7:30 AM70 °FFog.No wind64%29.98 "Hg2 mi
7:00 AM68 °FFog.No wind69%29.98 "Hg2 mi
6:30 AM64 °FFog.No wind73%29.95 "Hg2 mi
5:30 AM66 °FClear.3 mph68%29.92 "Hg5 mi
11:30 PM
Tue, Oct 25
73 °FPassing clouds.5 mph50%29.95 "Hg5 mi
10:30 PM75 °FPassing clouds.5 mph50%29.98 "Hg5 mi
9:30 PM77 °FPassing clouds.5 mph47%29.98 "Hg5 mi
8:30 PM79 °FPassing clouds.5 mph42%29.95 "Hg5 mi
7:30 PM79 °FPassing clouds.3 mph42%29.92 "Hg5 mi
6:30 PM79 °FPassing clouds.3 mph45%29.89 "Hg5 mi
5:30 PM81 °FScattered clouds.3 mph39%29.86 "Hg5 mi
5:00 PM82 °FScattered clouds.3 mph37%29.86 "Hg5 mi
4:30 PM82 °FScattered clouds.3 mph37%29.86 "Hg5 mi
4:00 PM82 °FScattered clouds.5 mph37%29.86 "Hg5 mi
3:30 PM86 °FScattered clouds.3 mph31%29.86 "Hg4 mi
3:00 PM86 °FScattered clouds.5 mph31%29.86 "Hg4 mi
2:30 PM86 °FScattered clouds.5 mph31%29.86 "Hg4 mi
2:00 PM86 °FScattered clouds.3 mph33%29.89 "Hg4 mi
Weather by CustomWeather, © 2016

See weather overviewHow to use our weather pages